• In Netherlands
  • List of Countries
  • For 7 days
  • Water Temperature
  • Satellite Maps
  • Weather Map
  • Weather Widgets
  • user-avatar
    Login

    Hourly Weather Dangriga

    Today, 27 July, Thursday

    Time Temperature Precipitation Wind Pressure Humidity
    00:00 +27°C° 0 mm 2 mps 761 mmHg 98%
    01:00 +27°C° 0.5 mm 2 mps 760 mmHg 98%
    02:00 +27°C° 0.5 mm 2 mps 760 mmHg 99%
    03:00 +26°C° 0.5 mm 1 mps 760 mmHg 99%
    04:00 +26°C° 0.1 mm 2 mps 760 mmHg 99%
    05:00 +26°C° 0.1 mm 2 mps 760 mmHg 98%
    06:00 +26°C° 0.1 mm 2 mps 760 mmHg 98%
    07:00 +28°C° 0.2 mm 2 mps 760 mmHg 90%
    08:00 +30°C° 0.2 mm 2 mps 760 mmHg 82%
    09:00 +31°C° 0.2 mm 2 mps 760 mmHg 74%
    10:00 +32°C° 0.1 mm 2 mps 760 mmHg 68%
    11:00 +35°C° 0.1 mm 3 mps 760 mmHg 62%
    12:00 +36°C° 0.1 mm 3 mps 760 mmHg 56%
    13:00 +35°C° 0.4 mm 3 mps 759 mmHg 66%
    14:00 +35°C° 0.4 mm 3 mps 759 mmHg 64%
    15:00 +35°C° 0.4 mm 3 mps 758 mmHg 63%
    16:00 +34°C° 0.2 mm 3 mps 758 mmHg 69%
    17:00 +31°C° 0.2 mm 3 mps 758 mmHg 76%
    18:00 +30°C° 0.2 mm 3 mps 758 mmHg 82%
    19:00 +29°C° 0.8 mm 3 mps 758 mmHg 87%
    20:00 +28°C° 0.8 mm 3 mps 759 mmHg 91%
    21:00 +27°C° 0.8 mm 2 mps 759 mmHg 95%
    22:00 +27°C° 0.3 mm 2 mps 759 mmHg 96%
    23:00 +27°C° 0.3 mm 2 mps 759 mmHg 96%

    Tomorrow, 28 July, Friday

    Time Temperature Precipitation Wind Pressure Humidity
    00:00 +26°C° 0.3 mm 2 mps 759 mmHg 96%
    01:00 +26°C° 0.3 mm 2 mps 759 mmHg 97%
    02:00 +26°C° 0.3 mm 1 mps 758 mmHg 97%
    03:00 +26°C° 0.3 mm 1 mps 758 mmHg 97%
    04:00 +26°C° 0 mm 1 mps 758 mmHg 97%
    05:00 +26°C° 0 mm 1 mps 758 mmHg 97%
    06:00 +24°C° 0 mm 0 mps 759 mmHg 97%
    07:00 +28°C° 0.1 mm 1 mps 759 mmHg 86%
    08:00 +31°C° 0.1 mm 1 mps 759 mmHg 76%
    09:00 +33°C° 0.1 mm 1 mps 759 mmHg 65%
    10:00 +34°C° 0 mm 1 mps 759 mmHg 60%
    11:00 +36°C° 0 mm 2 mps 759 mmHg 55%
    12:00 +37°C° 0 mm 2 mps 759 mmHg 50%
    13:00 +37°C° 0 mm 2 mps 758 mmHg 51%
    14:00 +36°C° 0 mm 3 mps 758 mmHg 51%
    15:00 +36°C° 0 mm 3 mps 757 mmHg 52%
    16:00 +35°C° 0 mm 3 mps 757 mmHg 60%
    17:00 +33°C° 0 mm 3 mps 757 mmHg 68%
    18:00 +30°C° 0 mm 3 mps 758 mmHg 76%
    19:00 +29°C° 0 mm 3 mps 758 mmHg 81%
    20:00 +28°C° 0 mm 3 mps 759 mmHg 87%
    21:00 +27°C° 0 mm 3 mps 759 mmHg 93%
    22:00 +27°C° 0 mm 3 mps 759 mmHg 93%
    23:00 +26°C° 0 mm 3 mps 759 mmHg 94%

    Day after tomorrow, 29 July, Saturday

    Time Temperature Precipitation Wind Pressure Humidity
    00:00 +26°C° 0 mm 3 mps 759 mmHg 94%
    01:00 +26°C° 0 mm 2 mps 759 mmHg 94%
    02:00 +26°C° 0 mm 2 mps 758 mmHg 94%
    03:00 +26°C° 0 mm 2 mps 758 mmHg 94%
    04:00 +26°C° 0.1 mm 2 mps 758 mmHg 94%
    05:00 +26°C° 0.1 mm 2 mps 758 mmHg 94%
    06:00 +26°C° 0.1 mm 2 mps 758 mmHg 94%
    07:00 +28°C° 0.2 mm 2 mps 759 mmHg 86%
    08:00 +30°C° 0.2 mm 2 mps 759 mmHg 79%
    09:00 +33°C° 0.2 mm 3 mps 760 mmHg 72%
    10:00 +33°C° 0.6 mm 3 mps 759 mmHg 74%
    11:00 +34°C° 0.6 mm 3 mps 759 mmHg 77%
    12:00 +34°C° 0.6 mm 3 mps 759 mmHg 80%
    13:00 +34°C° 0.5 mm 3 mps 758 mmHg 78%
    14:00 +34°C° 0.5 mm 3 mps 758 mmHg 76%
    15:00 +34°C° 0.5 mm 3 mps 757 mmHg 74%
    16:00 +33°C° 0.4 mm 3 mps 758 mmHg 77%
    17:00 +31°C° 0.4 mm 3 mps 758 mmHg 80%
    18:00 +30°C° 0.4 mm 4 mps 758 mmHg 83%
    19:00 +29°C° 0.7 mm 4 mps 758 mmHg 87%
    20:00 +29°C° 0.7 mm 4 mps 759 mmHg 90%
    21:00 +28°C° 0.7 mm 4 mps 759 mmHg 94%
    22:00 +28°C° 0.1 mm 4 mps 759 mmHg 94%
    23:00 +28°C° 0.1 mm 4 mps 759 mmHg 95%

    30 July, Sunday

    Time Temperature Precipitation Wind Pressure Humidity
    00:00 +28°C° 0.1 mm 4 mps 759 mmHg 95%
    01:00 +28°C° 0 mm 4 mps 759 mmHg 96%
    02:00 +28°C° 0 mm 4 mps 758 mmHg 96%
    03:00 +28°C° 0 mm 4 mps 758 mmHg 97%
    04:00 +28°C° 0 mm 3 mps 758 mmHg 97%
    05:00 +28°C° 0 mm 3 mps 758 mmHg 97%
    06:00 +28°C° 0 mm 3 mps 759 mmHg 97%
    07:00 +29°C° 0.1 mm 3 mps 759 mmHg 91%
    08:00 +30°C° 0.1 mm 3 mps 759 mmHg 85%
    09:00 +33°C° 0.1 mm 3 mps 760 mmHg 79%
    10:00 +34°C° 0.1 mm 3 mps 760 mmHg 72%
    11:00 +35°C° 0.1 mm 3 mps 759 mmHg 65%
    12:00 +36°C° 0.1 mm 3 mps 759 mmHg 58%
    13:00 +36°C° 0 mm 3 mps 759 mmHg 58%
    14:00 +36°C° 0 mm 4 mps 758 mmHg 59%
    15:00 +36°C° 0 mm 4 mps 757 mmHg 59%
    16:00 +34°C° 0 mm 4 mps 758 mmHg 67%
    17:00 +33°C° 0 mm 4 mps 758 mmHg 74%
    18:00 +32°C° 0 mm 4 mps 758 mmHg 82%
    19:00 +30°C° 0.5 mm 4 mps 759 mmHg 87%
    20:00 +29°C° 0.5 mm 4 mps 759 mmHg 92%
    21:00 +28°C° 0.5 mm 4 mps 759 mmHg 96%
    22:00 +28°C° 0.3 mm 4 mps 759 mmHg 97%
    23:00 +28°C° 0.3 mm 4 mps 759 mmHg 97%

    31 July, Monday

    Time Temperature Precipitation Wind Pressure Humidity
    00:00 +28°C° 0.3 mm 4 mps 759 mmHg 97%
    01:00 +28°C° 0.1 mm 4 mps 759 mmHg 97%
    02:00 +28°C° 0.1 mm 4 mps 758 mmHg 97%
    03:00 +28°C° 0.1 mm 4 mps 758 mmHg 97%
    04:00 +28°C° 0.1 mm 4 mps 758 mmHg 97%
    05:00 +28°C° 0.1 mm 4 mps 758 mmHg 97%
    06:00 +28°C° 0.1 mm 4 mps 759 mmHg 97%
    07:00 +29°C° 0.2 mm 4 mps 759 mmHg 91%
    08:00 +32°C° 0.2 mm 4 mps 759 mmHg 84%
    09:00 +33°C° 0.2 mm 4 mps 760 mmHg 78%
    10:00 +34°C° 0.1 mm 4 mps 759 mmHg 71%
    11:00 +35°C° 0.1 mm 4 mps 759 mmHg 63%
    12:00 +36°C° 0.1 mm 4 mps 759 mmHg 56%
    13:00 +36°C° 0 mm 4 mps 758 mmHg 57%
    14:00 +36°C° 0 mm 4 mps 758 mmHg 57%
    15:00 +36°C° 0 mm 4 mps 757 mmHg 58%
    16:00 +34°C° 0 mm 4 mps 757 mmHg 65%
    17:00 +33°C° 0 mm 4 mps 758 mmHg 73%
    18:00 +32°C° 0 mm 4 mps 758 mmHg 80%
    19:00 +30°C° 0.6 mm 4 mps 758 mmHg 85%
    20:00 +29°C° 0.6 mm 5 mps 759 mmHg 89%
    21:00 +28°C° 0.6 mm 5 mps 759 mmHg 94%
    22:00 +28°C° 0.3 mm 5 mps 759 mmHg 95%
    23:00 +28°C° 0.3 mm 5 mps 759 mmHg 96%

    1 August, Tuesday

    Time Temperature Precipitation Wind Pressure Humidity
    00:00 +27°C° 0.3 mm 5 mps 759 mmHg 97%
    01:00 +28°C° 0.2 mm 5 mps 759 mmHg 96%
    02:00 +28°C° 0.2 mm 5 mps 759 mmHg 96%
    03:00 +28°C° 0.2 mm 5 mps 758 mmHg 96%
    04:00 +28°C° 0.2 mm 5 mps 758 mmHg 96%
    05:00 +28°C° 0.2 mm 5 mps 759 mmHg 96%
    06:00 +28°C° 0.2 mm 5 mps 759 mmHg 96%
    07:00 +29°C° 0.3 mm 5 mps 759 mmHg 88%
    08:00 +32°C° 0.3 mm 5 mps 759 mmHg 80%
    09:00 +33°C° 0.3 mm 5 mps 760 mmHg 72%
    10:00 +35°C° 0 mm 4 mps 759 mmHg 66%
    11:00 +36°C° 0 mm 4 mps 759 mmHg 60%
    12:00 +37°C° 0 mm 4 mps 759 mmHg 54%
    13:00 +36°C° 0 mm 4 mps 758 mmHg 55%
    14:00 +36°C° 0 mm 5 mps 758 mmHg 55%
    15:00 +36°C° 0 mm 5 mps 757 mmHg 56%
    16:00 +34°C° 0 mm 5 mps 757 mmHg 64%
    17:00 +33°C° 0 mm 5 mps 758 mmHg 71%
    18:00 +32°C° 0 mm 5 mps 758 mmHg 79%
    19:00 +30°C° 0.8 mm 5 mps 758 mmHg 84%
    20:00 +29°C° 0.8 mm 5 mps 759 mmHg 88%
    21:00 +28°C° 0.8 mm 6 mps 760 mmHg 93%
    22:00 +28°C° 0.7 mm 6 mps 759 mmHg 94%
    23:00 +28°C° 0.7 mm 6 mps 759 mmHg 95%
    Show more